Tracking 19176 objects as of 27-May-2018
HD Live streaming from Space Station
objects crossing your sky now

NOAA 16 DEB

Track NOAA 16 DEB now!
10-day predictions


NORAD ID: 41061
Int'l Code: 2000-055U
Perigee: 829.8 km
Apogee: 864.2 km
Inclination: 98.9 °
Period: 101.7 minutes
Semi major axis: 7217 km
RCS: Unknown
Launch date: September 21, 2000
Source: United States (US)
Launch site: AIR FORCE WESTERN TEST RANGE (AFWTR)

Note: This is SATELLITE DEBRIS
aabbcc
Your satellite tracking list
Your tracking list is empty




NASA's NSSDC Master Catalog

Two Line Element Set (TLE):
1 41061U 00055U   18146.89480314 +.00000296 +00000-0 +17316-3 0  9997
2 41061 098.8565 226.1043 0023763 074.8882 285.4918 14.15721354129193
Source of the keplerian elements: AFSPC